Vorticity
nan nan nan nan nan nan nan nan nan nan nan nan nan nan nan nan nan nan nan nan nan nan nan nan nan nan nan nan nan nan nan nan nan nan nan nan nan nan nan nan nan nan nan nan nan nan nan nan nan
nan 9 6 6 10 8 5 6 7 7 11 4 7 11 -1 2 11 8 2 6 9 7 7 4 8 8 8 9 9 9 8 7 7 7 7 7 6 5 5 5 5 5 6 6 5 4 4 5 nan
nan 8 7 5 9 12 7 8 9 8 3 -0 1 4 7 1 2 5 4 6 8 8 7 6 9 8 7 8 8 8 8 9 8 8 8 7 6 6 6 5 5 6 6 6 6 6 6 6 nan
nan 9 6 6 6 9 8 11 9 -0 -0 9 5 4 4 5 8 8 9 5 3 4 3 4 7 10 9 7 7 7 7 7 8 9 8 9 10 8 6 5 5 6 6 7 7 8 8 6 nan
nan 6 6 9 7 3 6 11 10 -3 3 10 3 3 3 5 9 10 9 5 5 5 4 3 6 7 7 6 6 7 7 7 7 7 8 8 9 10 10 7 5 5 6 6 7 9 9 7 nan
nan 6 9 10 6 3 8 10 7 4 4 7 10 3 3 6 6 7 8 7 5 7 6 3 2 1 4 6 5 6 6 7 7 7 7 6 6 7 10 13 10 6 5 4 5 6 9 8 nan
nan 6 6 11 11 6 6 11 11 9 6 6 4 -0 5 8 6 8 6 5 5 5 5 5 2 3 2 1 5 5 5 5 5 4 6 8 6 7 7 7 15 12 7 5 5 5 7 8 nan
nan 9 10 9 7 8 7 7 11 6 4 6 6 8 11 10 6 5 5 3 3 4 5 5 5 5 4 1 3 4 4 6 5 4 7 11 12 8 6 9 6 5 10 10 6 7 7 7 nan
nan 8 9 12 9 6 8 0 4 11 6 1 10 17 20 12 4 4 3 2 2 3 4 5 6 7 7 7 3 4 5 6 5 6 7 11 11 6 5 8 2 6 8 8 9 8 7 8 nan
nan 6 8 9 11 10 10 5 6 8 0 1 8 15 10 6 5 4 3 2 3 4 4 5 5 6 9 7 5 7 6 5 6 6 8 10 7 10 9 7 9 11 11 9 10 9 8 3 nan
nan 7 8 7 8 10 9 10 6 9 8 7 10 4 2 3 4 4 4 5 6 5 4 5 7 6 9 8 8 8 6 6 5 4 8 9 9 8 11 11 7 12 14 13 12 9 7 3 nan
nan 8 5 4 5 9 8 6 9 3 7 20 19 7 5 4 4 5 5 5 4 4 4 5 6 7 8 9 8 8 7 8 6 4 8 10 8 7 8 7 8 9 6 4 13 15 8 9 nan
nan 6 5 3 5 8 8 7 8 9 8 19 11 6 5 3 4 5 5 5 5 4 5 5 6 7 8 9 8 7 8 7 7 7 7 8 8 8 7 8 8 8 8 8 6 4 13 16 nan
nan 7 6 7 7 8 9 8 5 14 11 10 7 5 5 5 3 4 5 4 5 5 5 6 6 7 8 7 8 9 8 7 9 7 6 8 9 8 8 8 8 8 8 7 7 8 7 9 nan
nan 11 10 14 9 9 10 5 5 11 10 6 5 5 5 5 5 4 5 5 6 6 5 6 7 7 8 8 8 8 8 8 8 7 5 7 8 8 9 9 8 8 7 9 9 9 8 6 nan
nan 8 10 12 12 12 7 8 21 8 7 5 4 4 4 5 4 5 5 5 6 6 7 7 6 7 8 9 9 8 7 8 8 7 6 6 7 8 9 9 7 8 9 11 10 10 10 8 nan
nan 6 9 0 12 10 9 4 18 11 6 6 5 5 4 4 4 4 5 5 5 7 7 7 7 7 8 9 9 8 7 8 8 8 7 6 8 7 9 9 7 8 10 8 9 8 10 10 nan
nan 12 5 6 12 8 6 6 1 9 9 6 7 5 5 3 5 3 4 6 6 7 7 7 7 7 10 10 10 9 7 7 7 7 6 7 8 7 10 9 7 9 9 7 6 8 8 11 nan
nan 7 5 8 2 9 7 5 5 13 8 8 7 6 6 4 4 4 4 6 6 6 6 7 8 9 10 9 9 8 7 8 7 7 5 8 7 9 10 8 7 8 8 7 7 8 9 10 nan
nan 6 7 7 7 6 7 7 11 14 11 9 8 7 7 5 2 4 4 5 6 6 6 7 8 9 10 9 8 8 7 8 8 7 8 7 7 9 8 8 8 8 8 8 8 9 10 10 nan
nan 9 6 5 9 11 15 18 19 12 12 11 10 10 9 7 4 4 3 5 5 5 6 7 7 8 9 10 10 9 11 8 7 7 7 6 8 7 8 9 8 8 9 9 8 9 9 10 nan
nan 11 8 9 7 10 8 13 24 19 9 8 11 11 10 7 6 5 5 5 4 6 7 7 7 8 8 8 9 9 10 9 9 8 6 6 7 8 8 9 8 9 9 8 8 8 9 9 nan
nan 13 15 11 5 9 6 4 8 13 14 11 11 10 8 8 8 6 5 5 5 5 7 7 7 8 7 8 9 9 9 10 8 7 7 10 8 8 8 8 9 10 9 8 8 8 9 9 nan
nan 12 8 8 12 9 16 7 4 16 16 16 15 13 10 9 6 5 6 6 6 5 6 6 8 8 7 8 8 9 9 9 8 8 10 8 9 8 7 8 9 10 8 8 9 9 10 9 nan
nan 1 7 10 6 4 18 12 9 12 10 14 20 17 12 8 7 6 6 5 4 5 7 7 7 7 8 8 9 9 9 10 8 9 8 8 10 8 6 7 9 8 8 9 9 10 11 12 nan
nan 3 2 2 2 10 5 4 13 7 8 11 18 19 13 8 7 7 6 7 5 4 6 8 7 8 8 8 9 9 10 11 9 8 9 10 7 6 8 9 8 8 9 10 10 11 9 11 nan
nan 15 9 13 12 13 5 11 5 4 7 11 16 14 10 8 7 7 6 7 6 5 6 7 8 8 8 9 9 9 8 8 9 9 9 8 8 7 8 9 10 10 10 10 11 9 8 10 nan
nan 8 17 17 14 10 7 8 19 17 8 7 9 10 10 9 7 6 6 6 5 6 6 7 8 8 8 9 9 9 9 8 10 9 7 8 9 8 9 10 10 10 10 10 11 9 9 10 nan
nan 3 -1 2 9 8 8 6 14 14 19 15 11 12 11 8 7 6 7 7 6 5 6 8 8 8 9 9 8 9 9 9 9 10 8 8 8 10 10 10 10 10 10 10 10 9 9 9 nan
nan nan nan nan nan nan nan nan nan nan nan nan nan nan nan nan nan nan nan nan nan nan nan nan nan nan nan nan nan nan nan nan nan nan nan nan nan nan nan nan nan nan nan nan nan nan nan nan nan
CAPE
0 0 0 0 0 0 0 0 0 0 0 0 0 38 12 26 100 290 2165 1942 1829 1811 1736 1529 1388 1837 1999 1965 1934 1910 1808 1667 1642 1792 1943 2094 2243 2243 2149 2112 2252 2228 2137 2015 1751 1367 1153 1041 948
0 0 0 0 0 0 0 0 0 0 0 0 0 0 0 0 764 1885 2357 1938 1728 1665 1426 1487 1173 1658 1839 1904 2026 2030 1870 1786 1749 1736 1765 1909 2065 2168 2130 2090 2025 2045 2164 2137 1898 1701 1505 1304 1015
0 0 0 0 0 0 0 0 0 0 0 0 0 0 0 0 1226 1935 1617 1684 1072 935 1216 1160 919 1211 1388 1425 1555 1614 1749 1837 1823 1854 1849 1815 1833 1987 2054 2049 1939 1950 1901 2025 1962 1820 1684 1508 1025
0 0 0 0 0 0 0 0 0 0 0 0 0 0 0 0 356 1 721 624 353 542 187 0 27 655 901 983 1118 1087 1076 1186 1451 1667 1771 1858 1885 1892 1930 1897 1819 1926 1913 1945 1953 1937 1950 1335 959
0 0 0 0 0 0 0 0 0 0 0 0 0 0 5 0 0 0 2 60 18 0 2 0 0 0 0 0 0 24 265 516 812 969 1179 1409 1606 1852 1969 1915 1730 1743 1928 1945 1929 1993 1789 1204 1017
0 0 0 0 0 0 0 0 0 0 0 0 0 5 10 0 0 0 0 0 0 0 0 0 0 0 0 0 0 0 0 0 0 12 101 352 598 965 1303 1762 1782 1656 1722 1693 1735 1560 1503 1385 1013
0 0 0 0 0 0 0 0 0 0 0 0 0 0 0 0 0 0 0 0 0 0 0 0 0 0 0 0 0 0 0 0 0 0 0 0 143 380 723 913 1445 1651 1552 1580 1487 1389 1203 1074 1072
0 0 0 0 0 0 0 0 0 0 0 0 0 0 79 0 0 0 0 0 0 0 0 0 0 0 0 0 0 0 0 0 0 0 0 0 0 90 572 635 1016 1060 1418 1498 1481 1293 1091 986 837
0 0 0 0 0 0 0 0 0 0 0 0 0 0 2 0 0 0 0 0 0 0 0 0 0 0 0 0 0 0 0 0 0 0 0 0 0 52 637 570 510 583 969 1102 1247 1232 1113 996 788
0 0 0 0 0 0 0 0 0 0 0 0 0 0 0 0 0 0 0 0 0 0 0 0 0 0 0 0 0 0 0 0 0 0 0 0 0 0 0 8 282 448 689 883 974 1075 1089 955 1482
0 0 0 0 0 0 0 0 0 0 0 0 0 0 0 0 0 0 0 0 0 0 0 0 0 0 0 0 0 0 0 0 0 0 0 0 0 0 0 0 4 597 1137 1571 1025 1448 1777 1486 1559
0 0 0 0 0 0 0 0 0 0 0 0 0 0 0 0 0 0 0 0 0 0 0 0 0 0 0 0 0 0 0 0 0 0 0 0 0 0 0 0 0 0 0 0 1527 1457 1407 1747 1690
0 0 0 0 0 0 0 0 0 0 0 0 0 0 0 0 0 0 0 0 0 0 0 0 0 0 0 0 0 0 0 0 0 0 0 0 0 0 0 0 0 0 0 0 0 22 1469 1610 1633
0 0 0 0 0 0 0 0 0 0 0 0 0 0 0 0 0 0 0 0 0 0 0 0 0 0 0 0 0 0 0 0 0 0 0 0 0 0 0 0 0 0 0 0 0 0 0 141 1792
0 0 0 0 0 0 0 0 0 0 0 0 0 0 0 0 0 0 0 0 0 0 0 0 0 0 0 0 0 0 0 0 0 0 0 0 0 0 0 0 0 0 0 0 0 0 0 0 650
0 0 0 0 0 0 0 0 0 0 0 0 0 0 0 0 0 0 0 0 0 0 0 0 0 0 0 0 0 0 0 0 0 0 0 0 0 0 0 0 0 0 0 0 0 0 0 0 0
0 0 0 0 0 0 0 0 0 0 0 0 0 0 0 0 0 0 0 0 0 0 0 0 0 0 0 0 0 0 0 0 0 0 0 0 0 1 1 0 0 2 0 0 1 0 0 0 0
0 0 0 0 0 0 0 0 0 0 0 0 0 0 0 0 0 0 0 0 0 0 0 0 0 0 0 0 0 0 0 0 0 0 0 1 1 2 2 0 1 2 1 2 4 10 2 2 0
0 0 0 0 0 0 0 0 0 0 0 0 0 0 0 0 0 0 0 0 0 0 0 0 0 0 0 0 0 0 0 0 0 0 0 0 1 3 4 2 2 5 6 7 7 6 9 1 0
0 0 0 0 0 0 0 0 0 0 0 0 0 0 0 0 0 0 0 0 0 0 0 0 0 0 0 0 0 0 0 0 0 0 0 0 1 3 1 5 5 6 9 10 9 4 4 6 5
0 0 0 0 0 0 0 0 0 0 0 0 0 0 0 0 0 0 0 0 0 0 0 0 0 0 0 0 0 0 0 0 0 0 0 0 1 3 5 9 9 10 7 9 9 4 6 13 6
0 0 0 0 0 0 0 0 0 0 0 0 0 0 0 0 0 0 0 0 0 0 0 0 0 0 0 0 0 0 0 0 0 0 0 0 0 0 6 6 9 13 12 10 10 10 14 16 12
0 0 0 0 0 0 0 0 0 0 0 0 0 0 0 0 0 0 0 0 0 0 0 0 0 0 0 0 0 0 0 0 0 0 0 0 0 0 4 12 14 13 7 13 8 10 13 15 32
0 0 0 0 0 0 0 0 0 0 0 0 0 0 0 0 0 0 0 0 0 0 0 0 0 0 0 0 0 0 0 0 0 0 0 0 0 0 3 8 12 12 12 11 13 13 14 3 20
0 0 0 0 0 0 0 0 0 0 0 0 0 0 0 0 0 0 0 0 0 0 0 0 0 0 0 0 0 0 0 0 0 0 0 1 1 1 4 9 13 11 8 13 10 6 14 12 6
0 0 2 0 4 4 0 0 0 0 0 0 0 0 0 0 0 0 0 0 0 0 0 0 0 0 0 0 0 0 0 0 0 2 6 3 4 4 7 9 7 6 12 11 11 16 8 21 18
0 0 0 14 7 1 0 0 0 0 0 0 0 0 0 0 0 0 0 0 0 0 0 0 0 0 0 0 0 0 0 2 3 7 11 6 7 4 6 8 9 4 9 11 14 18 9 21 24
4 0 0 2 7 13 0 1 0 0 0 0 0 0 0 0 0 0 0 0 0 0 0 0 0 0 0 0 0 0 0 4 6 9 13 12 8 9 9 12 11 7 14 8 6 8 10 15 25
1 0 0 1 6 58 21 2 0 0 0 0 0 0 0 0 0 0 0 0 0 0 0 0 0 0 0 0 0 2 4 6 7 8 12 14 12 11 9 10 10 12 6 7 8 7 10 13 13
0 11 56 92 4 25 34 5 0 0 0 0 0 0 0 0 0 0 0 0 0 0 0 0 0 0 0 0 1 4 6 8 8 9 12 16 13 11 11 9 10 11 5 5 9 6 7 14 13